Fallon NAS, NV

11:29 AM PDT on March 24, 2017 (GMT -0700)
Fallon Naval Air Station

Weather History for KNFL - April, 2012

Change the Weather History Date:

Monday, April 2, 2012

  Actual Average Record
Temperature  
Mean Temperature 42 °F -  
Max Temperature 55 °F 61 °F 86 °F (1966)
Min Temperature 28 °F 30 °F 18 °F (1963)
Degree Days  
Heating Degree Days 24    
Moisture  
Dew Point 18 °F    
Average Humidity 42    
Maximum Humidity 69    
Minimum Humidity 18    
Precipitation  
Precipitation 0.00 in - - ()
Sea Level Pressure  
Sea Level Pressure 30.09 in    
Wind  
Wind Speed 5 mph (North)    
Max Wind Speed 13 mph    
Max Gust Speed 18 mph    
Visibility 10 miles    
Events      
Averages and records for this station are not official NWS values.
T = Trace of Precipitation, MM = Missing Value Source: NWS Daily Summary

Daily Weather History Graph

Daily Weather History Graph

Search for Another Location

Airport or City:

Trip Planner

Search our weather history database for the weather conditions in past years. The results will help you decide how hot, cold, wet, or windy it might be!

Date:

Astronomy

Apr. 02, 2012 Rise Set
Actual Time 6:36 AM PDT 7:20 PM PDT
Civil Twilight 6:09 AM PDT 7:47 PM PDT
Nautical Twilight 5:37 AM PDT 8:19 PM PDT
Astronomical Twilight 5:04 AM PDT 8:52 PM PDT
Moon 3:02 PM PDT (4/2) 3:51 AM PDT (4/2)
Length of Visible Light 13h 37m
Length of Day
12h 43m
Waxing Gibbous, 79% of the Moon is Illuminated
Apr 2
Waxing Gibbous
Apr 6
Full
Apr 13
Last Quarter
Apr 21
New
Apr 29
First Quarter

Hourly Weather History & Observations

Time (PDT) Temp. Windchill Dew Point Humidity Pressure Visibility Wind Dir Wind Speed Gust Speed Precip Events Conditions
12:56 AM 36.0 °F 33.3 °F 21.0 °F 55% 30.09 in 10.0 mi Variable 3.5 mph - N/A   Clear
1:56 AM 39.0 °F 35.7 °F 21.9 °F 50% 30.10 in 10.0 mi Variable 4.6 mph - N/A   Clear
2:56 AM 30.9 °F 27.5 °F 19.9 °F 64% 30.10 in 10.0 mi South 3.5 mph - N/A   Clear
3:56 AM 28.9 °F 21.1 °F 19.0 °F 67% 30.10 in 10.0 mi ESE 8.1 mph - N/A   Clear
4:56 AM 30.9 °F - 19.9 °F 64% 30.11 in 10.0 mi Calm Calm - N/A   Clear
5:56 AM 28.0 °F 19.3 °F 19.0 °F 69% 30.12 in 10.0 mi West 9.2 mph - N/A   Clear
6:12 AM 28.4 °F 20.4 °F 19.4 °F 69% 30.23 in 10.0 mi WNW 8.1 mph - N/A   Scattered Clouds
6:56 AM 30.0 °F 23.2 °F 19.9 °F 66% 30.14 in 10.0 mi WNW 6.9 mph - N/A   Mostly Cloudy
7:56 AM 37.0 °F - 21.9 °F 54% 30.16 in 10.0 mi Calm Calm - N/A   Mostly Cloudy
8:56 AM 41.0 °F 38.0 °F 23.0 °F 49% 30.15 in 10.0 mi NW 4.6 mph - N/A   Mostly Cloudy
9:56 AM 44.1 °F 41.5 °F 24.1 °F 45% 30.15 in 10.0 mi Variable 4.6 mph - N/A   Mostly Cloudy
10:56 AM 46.9 °F - 23.0 °F 39% 30.15 in 10.0 mi Variable 5.8 mph - N/A   Mostly Cloudy
11:56 AM 48.9 °F - 21.0 °F 33% 30.13 in 10.0 mi Variable 4.6 mph - N/A   Overcast
12:56 PM 50.0 °F - 19.9 °F 31% 30.12 in 10.0 mi North 6.9 mph - N/A   Overcast
1:56 PM 52.0 °F - 18.0 °F 26% 30.09 in 10.0 mi North 9.2 mph - N/A   Overcast
2:56 PM 53.1 °F - 16.0 °F 23% 30.07 in 10.0 mi NW 11.5 mph 18.4 mph N/A   Overcast
3:56 PM 55.0 °F - 15.1 °F 21% 30.05 in 10.0 mi NNE 6.9 mph - N/A   Overcast
4:56 PM 55.9 °F - 12.9 °F 18% 30.03 in 10.0 mi NNE 12.7 mph 16.1 mph N/A   Overcast
5:56 PM 55.0 °F - 12.0 °F 18% 30.02 in 10.0 mi NNE 10.4 mph - N/A   Mostly Cloudy
6:56 PM 52.0 °F - 12.0 °F 20% 30.02 in 10.0 mi NE 6.9 mph - N/A   Mostly Cloudy
7:56 PM 46.0 °F 42.5 °F 14.0 °F 28% 30.02 in 10.0 mi NE 6.9 mph - N/A   Mostly Cloudy
8:56 PM 42.1 °F - 14.0 °F 32% 30.03 in 10.0 mi Calm Calm - N/A   Partly Cloudy
9:56 PM 39.9 °F 35.8 °F 14.0 °F 35% 30.03 in 10.0 mi SE 5.8 mph - N/A   Partly Cloudy
10:56 PM 39.0 °F 34.8 °F 15.1 °F 38% 30.02 in 10.0 mi SSW 5.8 mph - N/A   Partly Cloudy
11:56 PM 39.9 °F 37.8 °F 18.0 °F 41% 30.02 in 10.0 mi South 3.5 mph - N/A   Clear